Location: Unspecified
(0.0000°N, 0.0000°E)
Time: 04:13:14
(UTC+02:00)

PROBA 2 - Visible Passes

Search period start: 21 October 2014 00:00
Search period end: 30 October 2014 23:00
Orbit: 706 x 727 km, 98.3° (Epoch: 19 October)

Date Brightness Start Highest point End Pass type
(mag) Time Alt. Az. Time Alt. Az. Time Alt. Az.
21 Oct ? 20:53:28 10° NNW 20:57:41 31° WNW 21:01:57 10° SW visible
22 Oct ? 20:02:21 10° NNE 20:07:02 55° ESE 20:11:46 10° S visible
23 Oct ? 20:49:48 10° NNW 20:54:09 35° WNW 20:58:33 10° SW visible
24 Oct ? 19:58:51 10° NNE 20:03:30 49° ESE 20:08:10 10° S visible
25 Oct ? 20:46:08 10° N 20:50:36 39° WNW 20:55:07 10° SW visible
27 Oct ? 19:42:30 10° N 19:47:03 43° WNW 19:51:40 10° SSW visible
28 Oct ? 20:33:21 10° WNW 20:34:09 10° WNW 20:34:57 10° W visible
29 Oct ? 19:38:52 10° N 19:43:30 48° WNW 19:48:11 10° SSW visible
30 Oct ? 20:28:53 10° WNW 20:30:36 12° WNW 20:32:20 10° W visible
